DLH1A EHAM-EDDF

Flight info

Callsign DLH1A
Flight time 0h 43m
Altitude 33000
Route EDUPO Z739 MISGO DCT DIXAT DIXAT1A
Aircraft A321/M-SDE3FGHIRWY/LB1

Departure

Time 2026-05-07 09:13
Airport Amsterdam Airport Schiphol (EHAM)

Arrival

Time 2026-05-07 09:56
Airport Frankfurt Main Airport (EDDF)
Time Latitude Longitude Altitude Speed Heading
2026-05-07 08:42 52.30477 4.76292 -1 ft 0 kts 239°
2026-05-07 09:02 52.30489 4.76324 -1 ft 4 kts 231°
2026-05-07 09:03 52.30507 4.76350 -1 ft 4 kts 186°
2026-05-07 09:03 52.30517 4.76350 -1 ft 0 kts 161°
2026-05-07 09:06 52.30515 4.76351 -1 ft 2 kts 160°
2026-05-07 09:06 52.30475 4.76395 -1 ft 11 kts 148°
2026-05-07 09:06 52.30404 4.76469 -1 ft 13 kts 148°
2026-05-07 09:07 52.30317 4.76526 -1 ft 14 kts 187°
2026-05-07 09:07 52.30250 4.76407 -1 ft 15 kts 237°
2026-05-07 09:07 52.30191 4.76252 -1 ft 17 kts 238°
2026-05-07 09:07 52.30125 4.76081 -1 ft 18 kts 237°
2026-05-07 09:08 52.30056 4.75896 -1 ft 20 kts 238°
2026-05-07 09:08 52.29979 4.75697 -1 ft 21 kts 238°
2026-05-07 09:08 52.29898 4.75486 -1 ft 23 kts 239°
2026-05-07 09:08 52.29835 4.75303 -1 ft 16 kts 255°
2026-05-07 09:09 52.29872 4.75134 -1 ft 17 kts 311°
2026-05-07 09:09 52.29962 4.74972 -1 ft 22 kts 311°
2026-05-07 09:09 52.30062 4.74787 0 ft 22 kts 311°
2026-05-07 09:09 52.30155 4.74615 10 ft 18 kts 311°
2026-05-07 09:10 52.30243 4.74452 10 ft 20 kts 311°
2026-05-07 09:10 52.30338 4.74272 -1 ft 16 kts 311°
2026-05-07 09:10 52.30415 4.74124 -1 ft 17 kts 304°
2026-05-07 09:10 52.30412 4.74003 -1 ft 11 kts 250°
2026-05-07 09:11 52.30410 4.73862 -2 ft 14 kts 274°
2026-05-07 09:11 52.30421 4.73769 -3 ft 5 kts 315°
2026-05-07 09:11 52.30457 4.73762 -3 ft 6 kts
2026-05-07 09:11 52.30459 4.73762 -3 ft 0 kts
2026-05-07 09:12 52.30498 4.73765 -3 ft 23 kts
2026-05-07 09:12 52.30946 4.73806 -1 ft 102 kts
2026-05-07 09:12 52.31876 4.73894 17 ft 161 kts
2026-05-07 09:13 52.32991 4.74045 756 ft 159 kts 12°
2026-05-07 09:13 52.34050 4.74670 1483 ft 165 kts 21°
2026-05-07 09:13 52.35179 4.75363 1900 ft 184 kts 20°
2026-05-07 09:13 52.36459 4.76121 2231 ft 207 kts 19°
2026-05-07 09:14 52.37849 4.77121 2516 ft 232 kts 34°
2026-05-07 09:14 52.39061 4.78974 3005 ft 249 kts 45°
2026-05-07 09:14 52.40276 4.81031 3890 ft 253 kts 45°
2026-05-07 09:14 52.41420 4.83248 4749 ft 258 kts 57°
2026-05-07 09:15 52.42165 4.85957 5562 ft 265 kts 74°
2026-05-07 09:15 52.42378 4.88973 6355 ft 272 kts 95°
2026-05-07 09:15 52.41849 4.91947 7115 ft 275 kts 120°
2026-05-07 09:15 52.40733 4.94511 7896 ft 278 kts 128°
2026-05-07 09:16 52.39539 4.97033 8681 ft 282 kts 128°
2026-05-07 09:16 52.38320 4.99578 9465 ft 286 kts 128°
2026-05-07 09:16 52.37084 5.02153 10197 ft 290 kts 128°
2026-05-07 09:16 52.35792 5.04843 10476 ft 312 kts 128°
2026-05-07 09:17 52.34428 5.07686 10700 ft 331 kts 128°
2026-05-07 09:17 52.32989 5.10690 11230 ft 338 kts 128°
2026-05-07 09:17 52.31528 5.13738 11880 ft 342 kts 128°
2026-05-07 09:17 52.30049 5.16817 12524 ft 347 kts 128°
2026-05-07 09:18 52.28551 5.19933 13198 ft 351 kts 129°
2026-05-07 09:18 52.27036 5.23084 13858 ft 354 kts 128°
2026-05-07 09:18 52.25507 5.26266 14417 ft 359 kts 128°
2026-05-07 09:18 52.23959 5.29480 15027 ft 362 kts 129°
2026-05-07 09:19 52.22396 5.32717 15594 ft 366 kts 129°
2026-05-07 09:19 52.20817 5.35985 16218 ft 368 kts 129°
2026-05-07 09:19 52.19248 5.39225 16844 ft 370 kts 129°
2026-05-07 09:19 52.17644 5.42528 17455 ft 372 kts 129°
2026-05-07 09:20 52.16032 5.45847 18071 ft 375 kts 129°
2026-05-07 09:20 52.14404 5.49191 18587 ft 378 kts 129°
2026-05-07 09:20 52.12762 5.52557 19096 ft 381 kts 129°
2026-05-07 09:20 52.11108 5.55948 19597 ft 384 kts 129°
2026-05-07 09:21 52.09444 5.59365 20097 ft 387 kts 129°
2026-05-07 09:21 52.07765 5.62807 20608 ft 390 kts 129°
2026-05-07 09:21 52.06073 5.66269 21100 ft 392 kts 129°
2026-05-07 09:21 52.04367 5.69744 21595 ft 395 kts 129°
2026-05-07 09:22 52.02670 5.73191 22061 ft 398 kts 129°
2026-05-07 09:22 52.00935 5.76709 22555 ft 400 kts 129°
2026-05-07 09:22 51.99190 5.80253 23013 ft 403 kts 129°
2026-05-07 09:22 51.97433 5.83822 23462 ft 406 kts 129°
2026-05-07 09:23 51.95630 5.87364 23867 ft 408 kts 131°
2026-05-07 09:23 51.93774 5.90865 24258 ft 411 kts 132°
2026-05-07 09:23 51.91882 5.94347 24655 ft 413 kts 132°
2026-05-07 09:23 51.89968 5.97835 25051 ft 415 kts 133°
2026-05-07 09:24 51.88046 6.01337 25417 ft 418 kts 132°
2026-05-07 09:24 51.86145 6.04818 25797 ft 420 kts 132°
2026-05-07 09:24 51.84210 6.08375 26175 ft 422 kts 132°
2026-05-07 09:24 51.82263 6.11958 26555 ft 425 kts 132°
2026-05-07 09:25 51.80309 6.15548 26935 ft 427 kts 132°
2026-05-07 09:25 51.78341 6.19159 27301 ft 429 kts 132°
2026-05-07 09:25 51.76365 6.22781 27674 ft 431 kts 132°
2026-05-07 09:25 51.74376 6.26417 28032 ft 433 kts 132°
2026-05-07 09:26 51.72372 6.30075 28384 ft 436 kts 132°
2026-05-07 09:26 51.70388 6.33695 28717 ft 439 kts 132°
2026-05-07 09:26 51.68361 6.37387 29076 ft 441 kts 132°
2026-05-07 09:26 51.66319 6.41094 29406 ft 443 kts 132°
2026-05-07 09:27 51.64267 6.44815 29761 ft 445 kts 132°
2026-05-07 09:27 51.62202 6.48544 30096 ft 447 kts 132°
2026-05-07 09:27 51.58049 6.56036 30689 ft 451 kts 132°
2026-05-07 09:28 51.55959 6.59813 30939 ft 453 kts 131°
2026-05-07 09:28 51.53858 6.63598 31183 ft 455 kts 132°
2026-05-07 09:28 51.51773 6.67350 31413 ft 457 kts 132°
2026-05-07 09:28 51.49648 6.71164 31674 ft 458 kts 132°
2026-05-07 09:29 51.47522 6.74973 31969 ft 458 kts 131°
2026-05-07 09:29 51.45396 6.78774 32321 ft 457 kts 131°
2026-05-07 09:29 51.43277 6.82553 32624 ft 455 kts 131°
2026-05-07 09:29 51.41183 6.86285 32327 ft 447 kts 131°
2026-05-07 09:30 51.39140 6.90014 31812 ft 442 kts 130°
2026-05-07 09:30 51.37194 6.93797 31247 ft 439 kts 128°
2026-05-07 09:30 51.35322 6.97609 30778 ft 433 kts 127°
2026-05-07 09:30 51.33521 7.01353 30326 ft 428 kts 127°
2026-05-07 09:31 51.31714 7.05097 29845 ft 422 kts 127°
2026-05-07 09:31 51.29926 7.08766 29388 ft 415 kts 128°
2026-05-07 09:31 51.28114 7.12307 28952 ft 408 kts 134°
2026-05-07 09:31 51.26007 7.15282 28536 ft 401 kts 144°
2026-05-07 09:32 51.23645 7.17564 28119 ft 395 kts 154°
2026-05-07 09:32 51.21196 7.19481 27720 ft 389 kts 154°
2026-05-07 09:32 51.18790 7.21378 27331 ft 383 kts 154°
2026-05-07 09:32 51.16419 7.23259 26943 ft 378 kts 154°
2026-05-07 09:33 51.14113 7.25086 26567 ft 373 kts 154°
2026-05-07 09:33 51.11805 7.26907 26184 ft 368 kts 154°
2026-05-07 09:33 51.09533 7.28724 25817 ft 363 kts 153°
2026-05-07 09:33 51.07301 7.30557 25442 ft 359 kts 153°
2026-05-07 09:34 51.05105 7.32381 25073 ft 355 kts 153°
2026-05-07 09:34 51.02921 7.34202 24642 ft 358 kts 153°
2026-05-07 09:34 51.00681 7.36069 24192 ft 367 kts 153°
2026-05-07 09:34 50.98408 7.37954 23750 ft 368 kts 153°
2026-05-07 09:35 50.96140 7.39826 23259 ft 367 kts 153°
2026-05-07 09:35 50.93880 7.41680 22803 ft 365 kts 153°
2026-05-07 09:35 50.91633 7.43520 22356 ft 363 kts 153°
2026-05-07 09:35 50.89425 7.45322 21908 ft 360 kts 153°
2026-05-07 09:36 50.87207 7.47136 21486 ft 358 kts 153°
2026-05-07 09:36 50.85002 7.48942 21051 ft 356 kts 153°
2026-05-07 09:36 50.82813 7.50733 20606 ft 353 kts 153°
2026-05-07 09:36 50.80636 7.52513 20172 ft 351 kts 152°
2026-05-07 09:37 50.78469 7.54277 19740 ft 349 kts 152°
2026-05-07 09:37 50.76313 7.56031 19322 ft 348 kts 152°
2026-05-07 09:37 50.74199 7.57753 18908 ft 346 kts 152°
2026-05-07 09:37 50.72068 7.59488 18470 ft 344 kts 152°
2026-05-07 09:38 50.69947 7.61210 18035 ft 342 kts 152°
2026-05-07 09:38 50.67841 7.62911 17608 ft 340 kts 153°
2026-05-07 09:38 50.65741 7.64605 17195 ft 338 kts 153°
2026-05-07 09:38 50.63655 7.66286 16779 ft 336 kts 153°
2026-05-07 09:39 50.61581 7.67961 16383 ft 334 kts 153°
2026-05-07 09:39 50.59522 7.69623 15978 ft 332 kts 153°
2026-05-07 09:39 50.57471 7.71278 15605 ft 330 kts 153°
2026-05-07 09:39 50.55429 7.72924 15230 ft 329 kts 153°
2026-05-07 09:40 50.53396 7.74561 14855 ft 328 kts 153°
2026-05-07 09:40 50.51372 7.76190 14485 ft 326 kts 153°
2026-05-07 09:40 50.49387 7.77789 14120 ft 325 kts 153°
2026-05-07 09:40 50.47374 7.79406 13741 ft 325 kts 153°
2026-05-07 09:41 50.45369 7.81012 13339 ft 322 kts 153°
2026-05-07 09:41 50.43410 7.82688 12982 ft 319 kts 146°
2026-05-07 09:41 50.41807 7.85046 12617 ft 317 kts 125°
2026-05-07 09:41 50.40823 7.88098 12256 ft 314 kts 104°
2026-05-07 09:42 50.40295 7.91391 11900 ft 310 kts 102°
2026-05-07 09:42 50.39794 7.94664 11543 ft 308 kts 102°
2026-05-07 09:42 50.39304 7.97914 11186 ft 306 kts 102°
2026-05-07 09:42 50.38824 8.01101 10841 ft 304 kts 101°
2026-05-07 09:43 50.38342 8.04311 10496 ft 301 kts 101°
2026-05-07 09:43 50.37864 8.07492 10155 ft 299 kts 102°
2026-05-07 09:43 50.37386 8.10635 10012 ft 293 kts 102°
2026-05-07 09:43 50.36915 8.13726 10023 ft 292 kts 101°
2026-05-07 09:44 50.36443 8.16818 10024 ft 292 kts 101°
2026-05-07 09:44 50.35971 8.19908 10026 ft 292 kts 102°
2026-05-07 09:44 50.35499 8.23001 10019 ft 293 kts 102°
2026-05-07 09:44 50.35024 8.26103 10021 ft 293 kts 101°
2026-05-07 09:45 50.34547 8.29210 10026 ft 293 kts 102°
2026-05-07 09:45 50.34076 8.32254 9741 ft 290 kts 102°
2026-05-07 09:45 50.33602 8.35324 9295 ft 290 kts 102°
2026-05-07 09:45 50.33130 8.38386 8867 ft 289 kts 102°
2026-05-07 09:46 50.32659 8.41432 8473 ft 287 kts 102°
2026-05-07 09:46 50.32187 8.44457 8055 ft 285 kts 102°
2026-05-07 09:46 50.31718 8.47460 7667 ft 283 kts 102°
2026-05-07 09:46 50.31252 8.50449 7265 ft 282 kts 102°
2026-05-07 09:47 50.30790 8.53422 6883 ft 280 kts 102°
2026-05-07 09:47 50.30331 8.56377 6504 ft 279 kts 102°
2026-05-07 09:47 50.29872 8.59315 6120 ft 277 kts 102°
2026-05-07 09:47 50.29415 8.62233 5742 ft 276 kts 101°
2026-05-07 09:48 50.28965 8.65097 5380 ft 273 kts 102°
2026-05-07 09:48 50.28514 8.67969 5052 ft 270 kts 102°
2026-05-07 09:48 50.28066 8.70810 4992 ft 269 kts 102°
2026-05-07 09:48 50.27615 8.73666 4994 ft 271 kts 103°
2026-05-07 09:49 50.27107 8.76505 4987 ft 272 kts 111°
2026-05-07 09:49 50.26028 8.78935 4993 ft 275 kts 131°
2026-05-07 09:49 50.24679 8.81061 4993 ft 275 kts 134°
2026-05-07 09:49 50.23319 8.83173 4994 ft 275 kts 134°
2026-05-07 09:50 50.21963 8.85280 4993 ft 275 kts 136°
2026-05-07 09:50 50.20362 8.86910 4996 ft 276 kts 152°
2026-05-07 09:50 50.18644 8.88239 4994 ft 275 kts 154°
2026-05-07 09:50 50.16823 8.89098 4993 ft 275 kts 177°
2026-05-07 09:51 50.14993 8.88675 4919 ft 261 kts 201°
2026-05-07 09:51 50.13464 8.87375 4794 ft 248 kts 221°
2026-05-07 09:51 50.12336 8.85468 4695 ft 232 kts 239°
2026-05-07 09:51 50.11671 8.83274 4586 ft 217 kts 253°
2026-05-07 09:52 50.11167 8.81135 4386 ft 203 kts 253°
2026-05-07 09:52 50.10689 8.79110 4100 ft 195 kts 253°
2026-05-07 09:52 50.10229 8.77162 3834 ft 189 kts 254°
2026-05-07 09:52 50.09776 8.75239 3561 ft 189 kts 253°
2026-05-07 09:53 50.09323 8.73324 3291 ft 188 kts 253°
2026-05-07 09:53 50.08873 8.71420 3011 ft 187 kts 252°
2026-05-07 09:53 50.08424 8.69525 2752 ft 186 kts 252°
2026-05-07 09:53 50.07977 8.67641 2481 ft 186 kts 253°
2026-05-07 09:54 50.07538 8.65791 2208 ft 184 kts 252°
2026-05-07 09:54 50.07106 8.63977 1951 ft 172 kts 252°
2026-05-07 09:54 50.06713 8.62328 1717 ft 154 kts 253°
2026-05-07 09:54 50.06356 8.60828 1482 ft 144 kts 253°
2026-05-07 09:55 50.06014 8.59387 1277 ft 140 kts 253°
2026-05-07 09:55 50.05680 8.57984 1068 ft 138 kts 252°
2026-05-07 09:55 50.05349 8.56585 836 ft 137 kts 252°
2026-05-07 09:55 50.05019 8.55190 656 ft 138 kts 252°
2026-05-07 09:56 50.04689 8.53813 476 ft 137 kts 253°
2026-05-07 09:56 50.04363 8.52457 355 ft 125 kts 252°
2026-05-07 09:56 50.04104 8.51355 329 ft 80 kts 249°
2026-05-07 09:56 50.03999 8.51037 326 ft 17 kts 225°
2026-05-07 09:57 50.03915 8.50921 325 ft 15 kts 217°
2026-05-07 09:57 50.03846 8.50845 326 ft 9 kts 208°
2026-05-07 09:57 50.03816 8.50835 332 ft 0 kts 177°
2026-05-07 09:57 50.03804 8.50840 333 ft 5 kts 161°
2026-05-07 09:58 50.03781 8.50895 333 ft 7 kts 97°
2026-05-07 09:58 50.03801 8.51006 332 ft 16 kts 70°
2026-05-07 09:58 50.03842 8.51174 333 ft 17 kts 70°
2026-05-07 09:58 50.03886 8.51362 331 ft 19 kts 69°
2026-05-07 09:59 50.03935 8.51565 333 ft 20 kts 69°
2026-05-07 09:59 50.03985 8.51773 336 ft 21 kts 70°
2026-05-07 09:59 50.04037 8.51994 335 ft 22 kts 69°
2026-05-07 09:59 50.04085 8.52189 351 ft 19 kts 69°
2026-05-07 10:00 50.04130 8.52381 348 ft 19 kts 70°
2026-05-07 10:00 50.04177 8.52576 353 ft 19 kts 70°
2026-05-07 10:00 50.04224 8.52773 354 ft 20 kts 69°
2026-05-07 10:00 50.04272 8.52974 362 ft 20 kts 69°
2026-05-07 10:01 50.04320 8.53174 366 ft 19 kts 70°
2026-05-07 10:01 50.04361 8.53344 372 ft 15 kts 69°
2026-05-07 10:01 50.04391 8.53479 374 ft 12 kts 74°
2026-05-07 10:01 50.04405 8.53664 375 ft 22 kts 85°
2026-05-07 10:02 50.04420 8.53890 375 ft 19 kts 84°
2026-05-07 10:02 50.04434 8.54109 375 ft 21 kts 84°
2026-05-07 10:02 50.04450 8.54346 374 ft 24 kts 84°
2026-05-07 10:02 50.04440 8.54554 369 ft 22 kts 104°
2026-05-07 10:03 50.04349 8.54739 359 ft 23 kts 143°
2026-05-07 10:03 50.04221 8.54825 358 ft 20 kts 159°
2026-05-07 10:03 50.04081 8.54904 353 ft 22 kts 159°
2026-05-07 10:03 50.03933 8.54990 353 ft 23 kts 159°
2026-05-07 10:04 50.03850 8.55093 354 ft 15 kts 93°
2026-05-07 10:04 50.03882 8.55255 356 ft 17 kts 69°
2026-05-07 10:04 50.03925 8.55432 354 ft 18 kts 70°
2026-05-07 10:04 50.03972 8.55629 356 ft 20 kts 70°
2026-05-07 10:05 50.04023 8.55843 355 ft 22 kts 68°
2026-05-07 10:05 50.04072 8.56042 355 ft 18 kts 69°
2026-05-07 10:05 50.04111 8.56211 362 ft 13 kts 70°
2026-05-07 10:05 50.04162 8.56281 353 ft 10 kts 357°
2026-05-07 10:06 50.04226 8.56249 361 ft 8 kts 339°
2026-05-07 10:06 50.04277 8.56208 359 ft 9 kts 315°
2026-05-07 10:06 50.04295 8.56111 355 ft 10 kts 293°
2026-05-07 10:06 50.04352 8.56051 359 ft 11 kts 340°
2026-05-07 10:07 50.04422 8.56043 359 ft 11 kts 30°
2026-05-07 10:07 50.04461 8.56154 356 ft 13 kts 69°
2026-05-07 10:07 50.04495 8.56295 357 ft 15 kts 69°
2026-05-07 10:07 50.04552 8.56439 358 ft 17 kts 35°
2026-05-07 10:08 50.04663 8.56520 361 ft 18 kts 25°
2026-05-07 10:08 50.04720 8.56584 358 ft 9 kts 53°
2026-05-07 10:08 50.04764 8.56660 359 ft 9 kts 34°
2026-05-07 10:08 50.04798 8.56688 361 ft 3 kts 38°
2026-05-07 10:09 50.04798 8.56723 362 ft 2 kts 104°
2026-05-07 10:09 50.04791 8.56753 356 ft 3 kts 114°
2026-05-07 10:09 50.04787 8.56766 363 ft 1 kts 114°
2026-05-07 10:09 50.04785 8.56772 362 ft 0 kts 114°